Weather History for Marianna, FL

Change the Weather History Date:

Friday, July 5, 2013

  Actual Average Record
Temperature  
Mean Temperature 75 °F 82 °F  
Max Temperature 80 °F 92 °F 100 °F (1998)
Min Temperature 70 °F 72 °F 67 °F (2014)
Degree Days  
Heating Degree Days 0    
Month to date heating degree days 0  
Since 1 June heating degree days 0  
Since 1 July heating degree days 0  
Cooling Degree Days 10    
Month to date cooling degree days 58  
Year to date cooling degree days 943  
Since 1 June cooling degree days 507  
Growing Degree Days 24 (Base 50)    
Moisture  
Dew Point 72 °F    
Average Humidity 90    
Maximum Humidity 100    
Minimum Humidity 79    
Precipitation  
Precipitation 0.84 in 0.19 in 0.84 in (2013)
Month to date precipitation 4.47 0.91  
Year to date precipitation 29.47 28.70  
Sea Level Pressure  
Sea Level Pressure 30.10 in    
Wind  
Wind Speed 4 mph (SE)    
Max Wind Speed 13 mph    
Max Gust Speed 17 mph    
Visibility 8 miles    
Events Rain , Thunderstorm    
T = Trace of Precipitation, MM = Missing Value Source: NWS Daily Summary

Daily Weather History Graph

Daily Weather History Graph

Search for Another Location

Airport:

Trip Planner

Search our weather history database for the weather conditions in past years. The results will help you decide how hot, cold, wet, or windy it might be!

Date:

Astronomy

Jul. 05, 2013 Rise Set
Actual Time 5:43 AM CDT 7:47 PM CDT
Civil Twilight 5:15 AM CDT 8:15 PM CDT
Nautical Twilight 4:41 AM CDT 8:48 PM CDT
Astronomical Twilight 4:05 AM CDT 9:24 PM CDT
Moon 3:38 AM CDT (7/5) 5:45 PM CDT (7/5)
Length of Visible Light 14h 59m
Length of Day
14h 04m
Waning Crescent, 6% of the Moon is Illuminated
Jul 5
Waning Crescent
Jul 8
New
Jul 15
First Quarter
Jul 22
Full
Jul 29
Last Quarter

Hourly Weather History & Observations

Time (CDT) Temp. Heat Index Dew Point Humidity Pressure Visibility Wind Dir Wind Speed Gust Speed Precip Events Conditions
12:39 AM 69.8 °F - 69.8 °F 100% 30.09 in 10.0 mi East 5.8 mph - N/A   Overcast
12:53 AM 70.0 °F - 69.1 °F 97% 30.09 in 10.0 mi East 5.8 mph - N/A   Mostly Cloudy
1:09 AM 69.8 °F - 69.8 °F 100% 30.09 in 10.0 mi East 5.8 mph - N/A   Scattered Clouds
1:53 AM 71.1 °F - 69.1 °F 93% 30.09 in 10.0 mi ESE 3.5 mph - N/A   Clear
2:53 AM 72.0 °F - 69.1 °F 91% 30.09 in 10.0 mi East 5.8 mph - N/A   Mostly Cloudy
3:53 AM 72.0 °F - 70.0 °F 93% 30.09 in 10.0 mi East 4.6 mph - N/A   Mostly Cloudy
4:53 AM 72.0 °F - 70.0 °F 93% 30.10 in 10.0 mi Calm Calm - N/A   Overcast
5:11 AM 71.6 °F - 69.8 °F 94% 30.11 in 10.0 mi WSW 3.5 mph - N/A   Overcast
5:20 AM 71.6 °F - 69.8 °F 94% 30.11 in 10.0 mi Calm Calm - N/A   Overcast
5:53 AM 72.0 °F - 70.0 °F 93% 30.12 in 10.0 mi Calm Calm - 0.00 in Rain Light Rain
6:35 AM 71.6 °F - 71.6 °F 100% 30.12 in 9.0 mi Calm Calm - 0.01 in Rain Light Rain
6:53 AM 72.0 °F - 71.1 °F 97% 30.12 in 9.0 mi Calm Calm - 0.01 in Rain Light Rain
7:07 AM 71.6 °F - 71.6 °F 100% 30.12 in 9.0 mi ENE 3.5 mph - 0.00 in Rain Light Rain
7:53 AM 73.0 °F - 72.0 °F 96% 30.13 in 10.0 mi East 3.5 mph - 0.00 in   Overcast
8:32 AM 73.4 °F - 71.6 °F 94% 30.16 in 3.0 mi SSE 5.8 mph - 0.03 in Rain Heavy Rain
8:53 AM 73.0 °F - 71.1 °F 93% 30.15 in 6.0 mi SE 4.6 mph - 0.06 in Rain Light Rain
9:53 AM 72.0 °F - 70.0 °F 93% 30.14 in 10.0 mi East 4.6 mph - 0.07 in Rain Light Rain
10:53 AM 75.0 °F - 71.1 °F 87% 30.14 in 10.0 mi East 5.8 mph - 0.07 in Rain Light Rain
11:53 AM 77.0 °F - 72.0 °F 84% 30.13 in 10.0 mi East 5.8 mph - 0.05 in   Mostly Cloudy
12:53 PM 78.1 °F - 73.0 °F 84% 30.12 in 10.0 mi Variable 4.6 mph - 0.01 in Rain Light Rain
1:37 PM 78.8 °F - 73.4 °F 83% 30.10 in 10.0 mi Calm Calm - 0.00 in Rain Light Rain
1:44 PM 78.8 °F - 73.4 °F 83% 30.10 in 10.0 mi SSW 4.6 mph - 0.00 in Rain Light Rain
1:53 PM 78.1 °F - 73.0 °F 84% 30.10 in 10.0 mi SSW 4.6 mph - 0.00 in   Scattered Clouds
2:45 PM 78.8 °F - 73.4 °F 83% 30.09 in 10.0 mi Variable 3.5 mph - N/A Thunderstorm Partly Cloudy
2:53 PM 79.0 °F - 73.9 °F 84% 30.09 in 10.0 mi South 4.6 mph - 0.00 in Rain , Thunderstorm Light Rain
3:00 PM 78.8 °F - 73.4 °F 83% 30.10 in 9.0 mi SE 3.5 mph - 0.01 in Rain Rain
3:53 PM 78.1 °F - 75.0 °F 90% 30.09 in 10.0 mi SSW 5.8 mph - 0.05 in   Mostly Cloudy
4:30 PM 78.8 °F - 75.2 °F 89% 30.09 in 10.0 mi West 4.6 mph - 0.01 in   Mostly Cloudy
4:40 PM 78.8 °F - 73.4 °F 83% 30.08 in 10.0 mi WSW 3.5 mph - 0.01 in   Mostly Cloudy
4:48 PM 78.8 °F - 73.4 °F 83% 30.08 in 10.0 mi WSW 3.5 mph - 0.01 in   Mostly Cloudy
4:53 PM 77.0 °F - 73.9 °F 90% 30.08 in 10.0 mi Calm Calm - 0.01 in   Mostly Cloudy
5:53 PM 80.1 °F 84.2 °F 73.0 °F 79% 30.06 in 10.0 mi Calm Calm - N/A   Mostly Cloudy
6:27 PM 77.0 °F - 73.4 °F 89% 30.08 in 2.0 mi ESE 11.5 mph - 0.00 in Rain Heavy Rain
6:30 PM 75.2 °F - 73.4 °F 94% 30.08 in 1.0 mi ESE 11.5 mph 17.3 mph 0.01 in Rain Heavy Rain
6:38 PM 75.2 °F - 71.6 °F 89% 30.08 in 1.2 mi SE 8.1 mph - 0.02 in Rain Rain
6:41 PM 75.2 °F - 71.6 °F 89% 30.08 in 3.0 mi SSE 4.6 mph - 0.02 in Rain Light Rain
6:53 PM 75.0 °F - 72.0 °F 90% 30.08 in 10.0 mi Calm Calm - 0.04 in   Mostly Cloudy
7:53 PM 73.9 °F - 72.0 °F 93% 30.10 in 4.0 mi ESE 9.2 mph 17.3 mph 0.08 in Rain Rain
8:07 PM 73.4 °F - 71.6 °F 94% 30.10 in 2.0 mi SE 4.6 mph - 0.02 in Rain Heavy Rain
8:15 PM 73.4 °F - 71.6 °F 94% 30.10 in 3.0 mi SE 5.8 mph - 0.03 in Rain Heavy Rain
8:53 PM 72.0 °F - 71.1 °F 97% 30.10 in 6.0 mi Calm Calm - 0.09 in Rain Rain
9:17 PM 73.4 °F - 71.6 °F 94% 30.11 in 5.0 mi East 3.5 mph - 0.04 in Rain Rain
9:44 PM 73.4 °F - 71.6 °F 94% 30.11 in 10.0 mi Calm Calm - 0.08 in Rain Light Rain
9:53 PM 73.0 °F - 71.1 °F 93% 30.11 in 10.0 mi East 4.6 mph - 0.09 in   Overcast
10:01 PM 73.4 °F - 71.6 °F 94% 30.11 in 10.0 mi Calm Calm - 0.01 in   Overcast
10:16 PM 73.4 °F - 71.6 °F 94% 30.11 in 10.0 mi Calm Calm - 0.03 in   Overcast
10:27 PM 73.4 °F - 71.6 °F 94% 30.11 in 10.0 mi East 4.6 mph - 0.04 in Rain Light Rain
10:53 PM 73.0 °F - 72.0 °F 96% 30.09 in 10.0 mi Variable 3.5 mph - 0.08 in Rain Light Rain
11:05 PM 73.4 °F - 71.6 °F 94% 30.09 in 10.0 mi SE 3.5 mph - 0.01 in   Scattered Clouds
11:53 PM 73.0 °F - 72.0 °F 96% 30.09 in 10.0 mi Variable 5.8 mph - 0.06 in   Mostly Cloudy